Location: Pokk?r
(18.7343°N, 79.8078°E)
Time: 03:33:29
(UTC+00:00)

Daily predictions for brighter satellites

Satellite Brightness Start Highest point End
(mag) Time Altitude Azimuth Time Altitude Azimuth Time Altitude Azimuth
Spot 2 3.9 00:04:48 10° N 00:08:46 63° WNW 00:12:47 10° SSW
Cosmos 1743 2.6 00:05:11 10° N 00:08:58 76° W 00:12:45 10° S
CZ-4B R/B 2.6 00:07:09 10° SSW 00:09:27 19° W 00:11:47 10° NW
Cosmos 1459 Rocket 4.2 00:04:05 10° NNW 00:09:45 43° W 00:15:25 10° SSW
Cosmos 2360 Rocket 3.8 00:07:35 10° W 00:10:34 14° WNW 00:13:34 10° NW
